DW3201 Weather Reports


time (UTC)temp
C
wind
direction
speed
KPH
gust
KPH
rain 1hr
cm
rain 24hr
cm
rain mn
cm
humidity
%
barometer
mb
20201130073600 0 329 6.4 16.1 0.00 0.00 0.00 68 1016.3
20201130072556 0 334 8.0 14.5 0.00 0.00 0.00 68 1016.3
20201130071555 1 332 6.4 12.9 0.00 0.00 0.00 68 1016.3
20201130070556 1 329 6.4 14.5 0.00 0.00 0.00 66 1016.3
20201130065554 1 323 6.4 14.5 0.00 0.00 0.00 67 1016.3
20201130064555 1 331 6.4 12.9 0.00 0.00 0.00 68 1016.3
20201130063552 1 329 6.4 11.3 0.00 0.00 0.00 68 1016.6
20201130062545 1 330 4.8 8.0 0.00 0.00 0.00 68 1016.3
20201130061545 1 321 3.2 11.3 0.00 0.00 0.00 68 1016.3
20201130060543 1 328 3.2 9.7 0.00 0.00 0.00 69 1016.6
20201130055529 1 338 6.4 9.7 0.00 0.00 0.00 68 1016.6
20201130054525 1 332 4.8 11.3 0.00 0.00 0.00 69 1016.6
20201130053524 1 323 8.0 11.3 0.00 0.00 0.00 69 1016.3
20201130052525 1 328 4.8 9.7 0.00 0.00 0.00 69 1016.3
20201130051526 1 324 4.8 9.7 0.00 0.00 0.00 70 1016.3
20201130050524 1 330 4.8 9.7 0.00 0.00 0.00 70 1015.9
20201130045521 1 322 3.2 8.0 0.00 0.00 0.00 71 1015.9
20201130044522 1 324 3.2 9.7 0.00 0.00 0.00 71 1015.9
20201130043518 0 325 4.8 14.5 0.00 0.00 0.00 70 1015.9
20201130042518 0 319 3.2 9.7 0.00 0.00 0.00 70 1015.9
20201130041515 1 323 4.8 9.7 0.00 0.00 0.00 69 1015.9
20201130040514 1 326 6.4 14.5 0.00 0.00 0.00 68 1015.9
20201130035517 1 325 6.4 9.7 0.00 0.00 0.00 67 1015.9
20201130034513 1 319 4.8 9.7 0.00 0.00 0.00 68 1015.9
20201130033517 1 317 4.8 11.3 0.00 0.00 0.00 67 1015.9
20201130032512 1 334 6.4 14.5 0.00 0.00 0.00 67 1015.9
20201130031518 1 326 4.8 14.5 0.00 0.00 0.00 67 1015.6
20201130030522 1 328 4.8 17.7 0.00 0.00 0.00 67 1015.6
20201130025510 1 324 6.4 9.7 0.00 0.00 0.00 67 1015.9
20201130024511 1 324 8.0 17.7 0.00 0.00 0.00 67 1015.6
20201130023514 1 323 4.8 11.3 0.00 0.00 0.00 66 1015.6
20201130022511 1 320 4.8 16.1 0.00 0.00 0.00 67 1015.6
20201130021521 2 333 9.7 17.7 0.00 0.00 0.00 66 1015.2
20201130020513 2 321 3.2 11.3 0.00 0.00 0.00 67 1015.2
20201130015510 2 320 4.8 11.3 0.00 0.00 0.00 66 1015.2
20201130014510 2 326 3.2 9.7 0.00 0.00 0.00 67 1015.2
20201130013501 2 324 6.4 11.3 0.00 0.00 0.00 65 1015.2
20201130012459 2 323 4.8 11.3 0.00 0.00 0.00 66 1015.6
20201130011459 2 315 4.8 17.7 0.00 0.00 0.00 67 1015.6
20201130010458 2 315 3.2 11.3 0.00 0.00 0.00 66 1015.6
20201130005457 2 318 3.2 17.7 0.00 0.00 0.00 65 1015.6
20201130004457 2 327 8.0 17.7 0.00 0.00 0.00 63 1015.6
20201130003457 3 329 4.8 16.1 0.00 0.00 0.00 64 1015.6
20201130002458 3 328 8.0 20.9 0.00 0.00 0.00 64 1015.6
20201130001455 3 322 4.8 16.1 0.00 0.00 0.00 65 1015.2
20201130000453 3 329 4.8 16.1 0.00 0.00 0.00 65 1014.9
20201129235452 3 327 6.4 11.3 0.00 0.00 0.00 65 1015.2
20201129234454 3 326 6.4 9.7 0.00 0.00 0.00 65 1015.2
20201129233451 3 322 4.8 19.3 0.00 0.00 0.00 65 1014.9
20201129232450 3 331 6.4 14.5 0.00 0.00 0.00 65 1014.9
20201129231449 3 324 6.4 9.7 0.00 0.00 0.00 66 1014.9
20201129230448 3 313 3.2 8.0 0.00 0.00 0.00 66 1014.9
20201129225449 3 319 4.8 11.3 0.00 0.00 0.00 65 1014.6
20201129224451 3 329 6.4 17.7 0.00 0.00 0.00 65 1014.6
20201129223445 4 318 3.2 8.0 0.00 0.00 0.00 66 1014.2
20201129222445 4 329 4.8 9.7 0.00 0.00 0.00 65 1014.2
20201129221444 4 315 3.2 17.7 0.00 0.00 0.00 65 1014.2
20201129220442 4 327 4.8 12.9 0.00 0.00 0.00 65 1014.2
20201129215441 5 313 3.2 8.0 0.00 0.00 0.00 66 1014.2
20201129214444 5 300 4.8 9.7 0.00 0.00 0.00 66 1013.9
20201129213439 5 320 4.8 9.7 0.00 0.00 0.00 66 1013.9
20201129212438 5 317 6.4 14.5 0.00 0.00 0.00 66 1013.5
20201129211439 6 309 3.2 9.7 0.00 0.00 0.00 65 1013.2
20201129210441 6 294 3.2 8.0 0.00 0.00 0.00 64 1012.9
20201129205435 6 321 3.2 9.7 0.00 0.00 0.00 62 1012.9
20201129204434 7 315 4.8 17.7 0.00 0.00 0.00 62 1012.5
20201129203434 7 326 4.8 9.7 0.00 0.00 0.00 62 1012.5
20201129202433 7 303 3.2 9.7 0.00 0.00 0.00 62 1012.5
20201129201432 7 317 1.6 8.0 0.00 0.00 0.00 62 1012.5
20201129200433 7 306 1.6 8.0 0.00 0.00 0.00 62 1012.5
20201129195432 8 317 1.6 9.7 0.00 0.00 0.00 61 1012.5
20201129194432 8 287 3.2 8.0 0.00 0.00 0.00 62 1012.5
20201129193431 8 308 3.2 8.0 0.00 0.00 0.00 61 1012.2
20201129192429 8 282 4.8 9.7 0.00 0.00 0.00 61 1012.2
20201129191428 8 284 3.2 9.7 0.00 0.00 0.00 59 1011.9
20201129190425 8 310 3.2 8.0 0.00 0.00 0.00 59 1011.9
20201129185424 8 303 3.2 9.7 0.00 0.00 0.00 60 1011.9
20201129184436 8 321 3.2 9.7 0.00 0.00 0.00 62 1011.9
20201129183423 8 292 3.2 8.0 0.00 0.00 0.00 62 1011.9
20201129182421 8 290 1.6 4.8 0.00 0.00 0.00 66 1011.9
20201129181421 8 281 3.2 8.0 0.00 0.00 0.00 64 1012.2
20201129180420 8 286 3.2 9.7 0.00 0.00 0.00 65 1011.9
20201129175418 7 282 1.6 6.4 0.00 0.00 0.00 66 1011.9
20201129174418 7 299 3.2 4.8 0.00 0.00 0.00 65 1011.9
20201129173415 7 291 3.2 6.4 0.00 0.00 0.00 66 1012.2
20201129172415 7 277 1.6 6.4 0.00 0.00 0.00 68 1012.2
20201129171413 6 288 3.2 4.8 0.00 0.00 0.00 68 1012.2
20201129170414 7 293 3.2 4.8 0.00 0.00 0.00 68 1012.5
20201129165411 7 301 3.2 8.0 0.00 0.00 0.00 67 1012.9
20201129164411 7 256 4.8 8.0 0.00 0.00 0.00 67 1012.9
20201129163410 7 267 3.2 9.7 0.00 0.00 0.00 67 1012.9
20201129162409 6 291 3.2 6.4 0.00 0.00 0.00 69 1012.9
20201129161408 6 262 1.6 6.4 0.00 0.00 0.00 69 1013.2
20201129160407 6 304 4.8 11.3 0.00 0.00 0.00 69 1012.9
20201129155408 6 290 3.2 9.7 0.00 0.00 0.00 69 1012.9
20201129154407 6 236 3.2 9.7 0.00 0.00 0.00 71 1013.2
20201129153411 6 220 4.8 14.5 0.00 0.00 0.00 71 1013.2
20201129152405 5 295 3.2 6.4 0.00 0.00 0.00 72 1013.2
20201129151407 5 207 3.2 9.7 0.00 0.00 0.00 74 1013.2
20201129150403 4 207 4.8 11.3 0.00 0.00 0.00 75 1013.2
20201129145408 4 270 3.2 12.9 0.00 0.00 0.00 76 1013.2
20201129144402 3 222 3.2 11.3 0.00 0.00 0.00 77 1013.5
20201129143400 3 241 3.2 6.4 0.00 0.00 0.00 78 1013.5
20201129142402 3 258 3.2 9.7 0.00 0.00 0.00 79 1013.5
20201129141359 2 203 3.2 9.7 0.00 0.00 0.00 81 1013.5
20201129140359 2 218 3.2 8.0 0.00 0.00 0.00 81 1013.2
20201129135356 2 211 3.2 6.4 0.00 0.00 0.00 82 1013.2
20201129134355 2 207 1.6 6.4 0.00 0.00 0.00 82 1013.2
20201129133354 2 202 3.2 8.0 0.00 0.00 0.00 82 1013.2
20201129132354 2 207 1.6 3.2 0.00 0.00 0.00 82 1013.2
20201129131353 2 254 1.6 3.2 0.00 0.00 0.00 82 1012.9
20201129130352 2 250 1.6 6.4 0.00 0.00 0.00 82 1013.2
20201129125350 2 221 3.2 6.4 0.00 0.00 0.00 82 1013.2
20201129124351 2 220 0.0 1.6 0.00 0.00 0.00 81 1013.5
20201129123349 2 269 0.0 6.4 0.00 0.00 0.00 80 1013.5
20201129122349 2 220 3.2 8.0 0.00 0.00 0.00 80 1013.2
20201129121350 2 194 4.8 6.4 0.00 0.00 0.00 80 1013.5
20201129120347 2 210 1.6 11.3 0.00 0.00 0.00 80 1013.2
20201129115346 2 202 1.6 4.8 0.00 0.00 0.00 80 1013.2
20201129114347 3 255 1.6 6.4 0.00 0.00 0.00 80 1013.2
20201129113345 3 213 1.6 6.4 0.00 0.00 0.00 80 1013.2
20201129112355 3 226 3.2 9.7 0.00 0.00 0.00 80 1013.5
20201129111342 3 87 3.2 8.0 0.00 0.00 0.00 80 1013.5
20201129110341 3 238 1.6 4.8 0.00 0.00 0.00 80 1013.5
20201129105341 2 218 1.6 4.8 0.00 0.00 0.00 81 1013.5
20201129104340 2 239 1.6 8.0 0.00 0.00 0.00 81 1013.2
20201129103338 2 218 1.6 9.7 0.00 0.00 0.00 81 1013.5
20201129102337 2 201 3.2 6.4 0.00 0.00 0.00 81 1013.5
20201129101336 2 204 1.6 6.4 0.00 0.00 0.00 81 1013.5
20201129100336 2 214 1.6 1.6 0.00 0.00 0.00 81 1013.2
20201129095335 3 205 1.6 6.4 0.00 0.00 0.00 81 1013.2
20201129094334 3 238 1.6 4.8 0.00 0.00 0.00 80 1013.5
20201129093333 3 210 3.2 9.7 0.00 0.00 0.00 80 1013.9
20201129092338 3 197 0.0 4.8 0.00 0.00 0.00 80 1013.9
20201129091333 3 222 1.6 3.2 0.00 0.00 0.00 80 1013.9
20201129090330 3 216 3.2 6.4 0.00 0.00 0.00 80 1013.9
20201129085329 3 243 3.2 6.4 0.00 0.00 0.00 79 1013.9
20201129084328 3 212 3.2 11.3 0.00 0.00 0.00 79 1013.9
20201129083331 3 218 3.2 8.0 0.00 0.00 0.00 80 1014.2
20201129082328 3 195 1.6 4.8 0.00 0.00 0.00 80 1014.2
20201129081327 3 192 1.6 9.7 0.00 0.00 0.00 79 1013.9
20201129080325 3 192 1.6 8.0 0.00 0.00 0.00 79 1013.9
20201129075324 3 185 1.6 6.4 0.00 0.00 0.00 78 1013.9
20201129074326 4 193 3.2 11.3 0.00 0.00 0.00 77 1013.9